SWA2313 KTYS-KDCA

Flight info

Callsign SWA2313
Flight time N/A
Altitude 35000
Route VXV SITTR TRUPS5
Aircraft B738/M-SDE2E3FGHIRWXY/LB1

Departure

Time 2026-05-05 17:08
Airport McGhee Tyson Airport (KTYS)

Arrival

Time N/A
Airport Ronald Reagan Washington National Airport (KDCA)
Time Latitude Longitude Altitude Speed Heading
2026-05-05 16:54 35.80717 -83.99137 967 ft 0 kts 136°
2026-05-05 16:57 35.80726 -83.99148 962 ft 4 kts 134°
2026-05-05 16:58 35.80744 -83.99173 962 ft 4 kts 123°
2026-05-05 16:58 35.80753 -83.99201 962 ft 4 kts 82°
2026-05-05 16:58 35.80748 -83.99217 963 ft 1 kts 46°
2026-05-05 16:58 35.80747 -83.99219 962 ft 0 kts 46°
2026-05-05 17:04 35.80759 -83.99204 964 ft 5 kts 44°
2026-05-05 17:04 35.80798 -83.99156 962 ft 11 kts 45°
2026-05-05 17:04 35.80864 -83.99076 967 ft 15 kts 45°
2026-05-05 17:04 35.80924 -83.99034 965 ft 9 kts
2026-05-05 17:05 35.80988 -83.99034 963 ft 9 kts 11°
2026-05-05 17:05 35.81042 -83.98975 965 ft 16 kts 46°
2026-05-05 17:05 35.81133 -83.98863 963 ft 19 kts 44°
2026-05-05 17:05 35.81233 -83.98740 964 ft 23 kts 49°
2026-05-05 17:06 35.81350 -83.98591 963 ft 24 kts 40°
2026-05-05 17:06 35.81469 -83.98453 962 ft 23 kts 46°
2026-05-05 17:06 35.81577 -83.98342 965 ft 14 kts 355°
2026-05-05 17:06 35.81622 -83.98427 961 ft 11 kts 247°
2026-05-05 17:07 35.81613 -83.98442 960 ft 1 kts 226°
2026-05-05 17:07 35.81609 -83.98448 958 ft 1 kts 226°
2026-05-05 17:07 35.81603 -83.98454 959 ft 1 kts 225°
2026-05-05 17:07 35.81561 -83.98501 959 ft 35 kts 220°
2026-05-05 17:08 35.81212 -83.98932 960 ft 103 kts 224°
2026-05-05 17:08 35.80575 -83.99713 958 ft 154 kts 224°
2026-05-05 17:08 35.79692 -84.00691 1299 ft 173 kts 222°
2026-05-05 17:08 35.78901 -84.01671 2429 ft 155 kts 226°
2026-05-05 17:09 35.78455 -84.02952 2806 ft 189 kts 267°
2026-05-05 17:09 35.78920 -84.04549 3324 ft 208 kts 304°
2026-05-05 17:09 35.80078 -84.05751 3585 ft 236 kts 322°
2026-05-05 17:09 35.81605 -84.06856 3526 ft 271 kts 336°
2026-05-05 17:10 35.83501 -84.06835 3890 ft 288 kts 20°
2026-05-05 17:10 35.85290 -84.05380 3469 ft 331 kts 45°
2026-05-05 17:10 35.86875 -84.03136 3530 ft 357 kts 55°
2026-05-05 17:10 35.88284 -84.00622 4357 ft 357 kts 58°
2026-05-05 17:11 35.89600 -83.98166 5827 ft 332 kts 59°
2026-05-05 17:11 35.90796 -83.95860 7319 ft 308 kts 57°
2026-05-05 17:11 35.92095 -83.93856 8664 ft 291 kts 50°
2026-05-05 17:11 35.93411 -83.92050 9855 ft 277 kts 49°
2026-05-05 17:12 35.94712 -83.90292 10392 ft 287 kts 49°
2026-05-05 17:12 35.96104 -83.88386 10556 ft 310 kts 49°
2026-05-05 17:12 35.97588 -83.86321 10747 ft 332 kts 49°
2026-05-05 17:12 35.99158 -83.84103 10916 ft 354 kts 49°
2026-05-05 17:13 36.00816 -83.81735 11126 ft 373 kts 50°
2026-05-05 17:13 36.02524 -83.79272 11616 ft 381 kts 50°
2026-05-05 17:13 36.04250 -83.76768 12288 ft 384 kts 49°
2026-05-05 17:13 36.05981 -83.74246 12971 ft 386 kts 49°
2026-05-05 17:14 36.07134 -83.72562 13422 ft 389 kts 49°
2026-05-05 17:14 36.08910 -83.69961 14083 ft 393 kts 49°
2026-05-05 17:14 36.10655 -83.67404 14676 ft 397 kts 49°
2026-05-05 17:14 36.12439 -83.64784 15329 ft 400 kts 49°
2026-05-05 17:15 36.14235 -83.62146 16012 ft 402 kts 49°
2026-05-05 17:15 36.16044 -83.59486 16680 ft 405 kts 49°
2026-05-05 17:15 36.17863 -83.56808 17304 ft 409 kts 49°
2026-05-05 17:15 36.19701 -83.54102 17934 ft 412 kts 48°
2026-05-05 17:16 36.21552 -83.51374 18539 ft 415 kts 48°
2026-05-05 17:16 36.23412 -83.48630 19113 ft 418 kts 48°
2026-05-05 17:16 36.25289 -83.45859 19627 ft 422 kts 47°
2026-05-05 17:16 36.27184 -83.43059 20199 ft 426 kts 47°